Location: Bismarck
(46.7731°N, 100.8200°W)
Time: 20:21:27
(UTC-06:00)

ISS - Pass Details

Date: 30 November 2017
Orbit: 402 x 407 km, 51.6° (Epoch: 10 December)

Event Time Altitude Azimuth Distance (km) Brightness Sun altitude
Rises 22:02:10 0° 292° (WNW) 2,330 - -50.8°
Reaches altitude 10° 22:04:20 10° 300° (WNW) 1,467 - -51.1°
Maximum altitude 22:07:28 40° 13° (NNE) 609 - -51.6°
Drops below altitude 10° 22:10:36 10° 85° (E) 1,461 - -52.1°
Sets 22:12:45 0° 93° (E) 2,319 - -52.4°
